Greenwood, MS

4:02 PM CST on February 23, 2017 (GMT -0600)
Greenwood-Leflore

Weather History for KGWO - November, 2013

Change the Weather History Date:

Saturday, November 9, 2013

  Actual Average Record
Temperature  
Mean Temperature 53 °F 57 °F  
Max Temperature 59 °F 69 °F 83 °F (2005)
Min Temperature 46 °F 44 °F 23 °F (1991)
Degree Days  
Heating Degree Days 12 9  
Month to date heating degree days 89 73  
Since 1 July heating degree days 205 204  
Cooling Degree Days 0 1  
Month to date cooling degree days 1 9  
Year to date cooling degree days 2093 2151  
Growing Degree Days 2 (Base 50)    
Moisture  
Dew Point 45 °F    
Average Humidity 72    
Maximum Humidity 93    
Minimum Humidity 51    
Precipitation  
Precipitation T in 0.13 in 3.55 in (1979)
Month to date precipitation 0.66 1.12  
Year to date precipitation 50.37 42.72  
Sea Level Pressure  
Sea Level Pressure 30.26 in    
Wind  
Wind Speed 2 mph (East)    
Max Wind Speed 8 mph    
Max Gust Speed 9 mph    
Visibility 10 miles    
Events Rain    
T = Trace of Precipitation, MM = Missing Value Source: NWS Daily Summary

Daily Weather History Graph

Daily Weather History Graph

Search for Another Location

Airport or City:

Trip Planner

Search our weather history database for the weather conditions in past years. The results will help you decide how hot, cold, wet, or windy it might be!

Date:

Astronomy

Nov. 09, 2013 Rise Set
Actual Time 6:26 AM CST 5:01 PM CST
Civil Twilight 6:00 AM CST 5:27 PM CST
Nautical Twilight 5:30 AM CST 5:57 PM CST
Astronomical Twilight 5:01 AM CST 6:26 PM CST
Moon 12:06 PM CST (11/9) 11:27 PM CST (11/9)
Length of Visible Light 11h 27m
Length of Day
10h 34m
Waxing Crescent, 44% of the Moon is Illuminated
Nov 9
Waxing Crescent
Nov 9
First Quarter
Nov 17
Full
Nov 25
Last Quarter
Dec 2
New

Hourly Weather History & Observations

Time (CST) Temp. Windchill Dew Point Humidity Pressure Visibility Wind Dir Wind Speed Gust Speed Precip Events Conditions
12:53 AM 46.0 °F 43.9 °F 44.1 °F 93% 30.23 in 10.0 mi NE 4.6 mph - N/A   Clear
1:53 AM 48.0 °F - 43.0 °F 83% 30.23 in 10.0 mi ENE 4.6 mph - N/A   Clear
2:53 AM 48.0 °F - 43.0 °F 83% 30.24 in 10.0 mi Calm Calm - N/A   Clear
3:53 AM 46.9 °F - 43.0 °F 86% 30.23 in 10.0 mi Calm Calm - N/A   Clear
4:53 AM 46.9 °F - 43.0 °F 86% 30.25 in 10.0 mi East 3.5 mph - N/A   Clear
5:53 AM 48.0 °F - 42.1 °F 80% 30.26 in 10.0 mi Calm Calm - N/A   Clear
6:53 AM 46.9 °F - 43.0 °F 86% 30.28 in 10.0 mi NE 3.5 mph - N/A   Clear
7:53 AM 48.9 °F - 42.1 °F 77% 30.29 in 10.0 mi East 3.5 mph - N/A   Partly Cloudy
8:53 AM 51.1 °F - 41.0 °F 68% 30.31 in 10.0 mi South 4.6 mph - N/A   Clear
9:53 AM 53.1 °F - 39.9 °F 61% 30.30 in 10.0 mi South 4.6 mph - N/A   Clear
10:53 AM 55.9 °F - 42.1 °F 60% 30.30 in 10.0 mi WSW 3.5 mph - N/A   Clear
11:53 AM 57.0 °F - 43.0 °F 59% 30.25 in 10.0 mi NNE 5.8 mph - N/A   Overcast
12:53 PM 57.0 °F - 43.0 °F 59% 30.25 in 10.0 mi SW 5.8 mph - N/A   Overcast
1:53 PM 57.9 °F - 41.0 °F 53% 30.24 in 10.0 mi South 4.6 mph - N/A   Mostly Cloudy
2:53 PM 59.0 °F - 41.0 °F 51% 30.22 in 10.0 mi NE 4.6 mph - N/A   Overcast
3:53 PM 57.9 °F - 43.0 °F 58% 30.23 in 10.0 mi Calm Calm - 0.00 in Rain Light Rain
4:53 PM 55.0 °F - 48.9 °F 80% 30.24 in 10.0 mi Calm Calm - 0.00 in   Mostly Cloudy
5:53 PM 53.1 °F - 50.0 °F 89% 30.26 in 10.0 mi Calm Calm - N/A   Overcast
6:53 PM 53.1 °F - 50.0 °F 89% 30.27 in 10.0 mi Calm Calm - N/A   Mostly Cloudy
7:53 PM 54.0 °F - 51.1 °F 90% 30.27 in 10.0 mi Calm Calm - N/A   Overcast
8:53 PM 54.0 °F - 51.1 °F 90% 30.27 in 10.0 mi Calm Calm - N/A   Overcast
9:53 PM 53.1 °F - 51.1 °F 93% 30.28 in 10.0 mi Calm Calm - N/A   Overcast
10:53 PM 54.0 °F - 50.0 °F 86% 30.29 in 10.0 mi Calm Calm - N/A   Overcast
11:53 PM 53.1 °F - 48.0 °F 83% 30.28 in 10.0 mi NNE 3.5 mph - N/A   Overcast